Hourly Data Report for July 25, 1967

All times are specified in Local Standard Time (LST). Add 1 hour to adjust for Daylight Saving Time where and when it is observed.

MONTREAL/PIERRE ELLIOTT TRUDEAU INTL A
QUEBEC

45°28'00.000" N
73°45'00.000" W
36.00 m
7025250
71627
YUL

Download Data

Hourly Data (July 1967)
Hourly Data Report for July 25, 1967
TIME Temp Definition
°C
Dew Point Definition
°C
Rel Hum Definition
%
Wind Dir Definition
10's deg

Wind Spd Definition
km/h
Visibility Definition
km
Stn Press Definition
kPa
Hmdx Definition


Wind Chill Definition


Weather Definition


00:00 22.2 18.9 80 18 14 19.3 100.09 29   Mainly Clear
01:00 20.6 18.3 87   0 19.3 100.05 27   Mainly Clear
02:00 21.7 18.3 82 14 11 19.3 99.98 28   Mostly Cloudy
03:00 21.1 18.9 89 20 21 12.9 99.99 28   Thunderstorms,Rain Showers
04:00 20.6 17.2 81 23 2 19.3 99.97 26   Mostly Cloudy
05:00 20.0 17.2 83 20 6 22.5 99.96 25   Mostly Cloudy
06:00 20.6 18.3 87 20 10 16.1 99.99 27   Rain Showers
07:00 22.2 18.3 78 23 23 24.1 99.98 28   Mostly Cloudy
08:00 22.8 18.9 79 23 26 19.3 100.01 29   Mostly Cloudy
09:00 23.3 18.3 72 23 23 24.1 99.98 30   Mostly Cloudy
10:00 24.4 17.8 67 25 24 32.2 99.99 30   Mostly Cloudy
11:00 23.9 16.7 65 23 23 40.2 100.00 29   Mainly Clear
12:00 26.1 17.8 59 25 24 40.2 99.96 32   Mainly Clear
13:00 25.0 16.1 58 23 23 48.3 99.95 30   Mainly Clear
14:00 25.6 16.1 56 23 24 48.3 99.91 30   Mainly Clear
15:00 26.1 15.6 53 23 23 48.3 99.90 30   Mainly Clear
16:00 26.1 16.7 57 23 24 48.3 99.92 31   Mainly Clear
17:00 24.4 16.7 62 23 26 48.3 99.92 29   Mainly Clear
18:00 24.4 17.8 67 23 23 48.3 99.92 30   Mainly Clear
19:00 23.9 16.1 62 23 23 48.3 99.97 29   Mainly Clear
20:00 22.2 15.0 64 25 18 25.0 100.03 26   Mainly Clear
21:00 21.1 15.6 71 25 13 25.0 100.09 25   Mainly Clear
22:00 21.7 15.6 68 25 26 25.0 100.11 26   Mostly Cloudy
23:00 21.1 16.1 74 23 19 25.0 100.16 26   Mostly Cloudy

Notes on Data Quality.

Legend

  • E = Estimated
  • M = Missing
  • NA = Not Available
Date modified: